Preview of NWS' New Version of Forecast
This preview is not operational and should not be used for support decisions.

Regional Weather Roundup (RWR)

Issued by National Weather Service (NWS)

                            
000
ASUS42 KTBW 202117
RWRFL 
FLORIDA REGIONAL WEATHER ROUNDUP
NATIONAL WEATHER SERVICE TAMPA BAY RUSKIN FL
500 PM EDT FRI SEP 20 2019

NOTE: "FAIR" INDICATES FEW OR NO CLOUDS BELOW 12,000 FEET WITH NO
SIGNIFICANT WEATHER AND/OR OBSTRUCTIONS TO VISIBILITY.

FLZ001>010-012>015-112-114-115-202200-
PANHANDLE FLORIDA
  
CITY           SKY/WX    TMP DP  RH WIND       PRES   REMARKS
PENSACOLA      FAIR      87  64  46 SE14G24   30.11F                  
PENSACOLA NAS  FAIR      86  66  51 SE17      30.11F                  
MILTON NAS     FAIR      87  60  40 E9        30.11F                  
CRESTVIEW      FAIR      92  59  33 SE7       30.13F                  
DUKE FIELD     FAIR      87  59  38 SE6       30.12S                  
VALPARAISO     FAIR      87  64  46 S8        30.11F                  
MARY ESTHER    MOSUNNY   86  67  53 SE9       30.11F                  
PANAMA CITY    PTSUNNY   89  62  40 NE12      30.10F                  
TYNDALL AFB    PTSUNNY   88  65  45 E10       30.10S                  
APALACHICOLA   FAIR      85  68  56 E12G20    30.12S                  

STATION/POSITION SKY/WX   TEMP    WIND        PRES    WAVE   SWELL
                          AIR SEA DIR/SP/G            HT/PER HT/PER
                          (F)     (DEG/KT/KT) (MB)    (FT/S) (FT/S)
30.1N   87.6W              81 85   90/ 17/ 21 1020.0F   6/ 7   3/ 7
29.2N   88.2W              83      80/ 19/ 23 1018.7F   7/ 8
28.8N   86.0W                 85   90/ 21/ 27 1018.5F
PANAMA CITY BEAC           85 84   90/  7/ 13 1020.3
TOWER C                    81      60/ 15/ 16 1019.8F
28.5N   84.5W              83      60/ 17/ 21 1018.9F   6/ 6

$$
FLZ011-016>038-118-127-128-134-139-239-202200-
NORTH FLORIDA
  
CITY           SKY/WX    TMP DP  RH WIND       PRES   REMARKS
MARIANNA       PTSUNNY   90  62  39 E13       30.12F                  
TALLAHASSEE    PTSUNNY   90  60  36 E9        30.11F                  
PERRY          FAIR      89  65  44 SE12G17   30.11F                  
LIVE OAK       SUNNY     90  55  31 NE14      30.12S                  
CROSS CITY     FAIR      87  60  39 E9G23     30.11S                  
LAKE CITY      FAIR      84  61  45 E6        30.14S                  
GAINESVILLE    CLOUDY    83  64  52 E13       30.15S                  
WILLISTON      FAIR      87  65  48 E10       30.11F                  
PALATKA        FAIR      81  64  57 E14       30.14S                  
MAYPORT NAS    FAIR      82  68  62 E14       30.16S                  
JACKSONVILLE   FAIR      84  64  50 E14G24    30.15S                  
JAX NAS        FAIR      83  65  54 E17       30.15S                  
JAX CECIL      MOSUNNY   88  64  45 E14       30.15R                  
FERNANDINA BEA PTSUNNY   83  69  61 E12       30.17S                  
ST AUGUSTINE   CLOUDY    81  32  17 E21       30.16F                  
PALM COAST     PTSUNNY   84  66  54 E14G23    30.14S                  

STATION/POSITION SKY/WX   TEMP    WIND        PRES    WAVE   SWELL
                          AIR SEA DIR/SP/G            HT/PER HT/PER
                          (F)     (DEG/KT/KT) (MB)    (FT/S) (FT/S)
SHELL POINT      NOT AVBL
KEATON BEACH               85      90/ 13/ 18 1019.7F
CEDAR KEY                  82      80/ 18/ 20 1019.6F
FERNANDINA                 89 81   60/  5/ 11 1022.4
30.7N   81.3W                 82                N/A     5/13   2/13
MAYPORT                    82 81   70/ 11/ 16 1021.8
31.4N   80.9W              75 81   50/ 14/ 16 1022.4R   6/ 5   3/13
ST AUGUSTINE               80 82   70/ 15/ 18 1021.3F

$$
FLZ040-043>046-052-053-057-058-063-144-202200-
INTERIOR CENTRAL FLORIDA
  
CITY           SKY/WX    TMP DP  RH WIND       PRES   REMARKS
OCALA          FAIR      87  65  47 E16G23    30.11F                  
LEESBURG       PTSUNNY   83  69  62 E9        30.12F                  
SANFORD        FAIR      84  66  54 E21G28    30.12S                  
ORLANDO EXEC   PTSUNNY   83  64  52 E20       30.10F                  
ORLANDO INTL   FAIR      84  64  50 E15G24    30.10S                  
KISSIMMEE      CLOUDY    84  66  54 E17G26    30.10S                  
WINTER HAVEN   CLOUDY    88  65  46 E18G25    30.09S                  
LAKELAND       PTSUNNY   84  64  51 E21G26    30.08S                  
SEBRING        CLOUDY    83  67  58 NE18      30.07S                  
OKEECHOBEE     PTSUNNY   81  68  65 E13G22    30.06S                  

$$
FLZ041-047-054-059-064-141-147-202200-
EAST CENTRAL FLORIDA
  
CITY           SKY/WX    TMP DP  RH WIND       PRES   REMARKS
ORMOND BEACH   MOSUNNY   82  68  61 E14       30.14S                  
DAYTONA BEACH  FAIR      82  67  60 E16       30.13S                  
DELAND         CLOUDY    82  66  57 E17G23    30.12S                  
NEW SMYRNA BEA MOSUNNY   84  66  54 E16G26    30.15S                  
JFK SPACE CTR  SUNNY     83  66  55 E12       30.11S                  
TITUSVILLE     MOSUNNY   88  64  45 E14       30.12S                  
CAPE CANAVERAL FAIR      83  67  56 E15       30.10S                  
PATRICK AFB    FAIR      83  69  61 E20G25    30.09F                  
MELBOURNE      FAIR      84  65  52 E18       30.09S                  
VERO BEACH     FAIR      85  66  53 E18G24    30.08S                  
FT PIERCE      PTSUNNY   84  67  56 E14G22    30.07S                  
STUART         MOSUNNY   81  70  69 E20G28    30.07F                  

STATION/POSITION SKY/WX   TEMP    WIND        PRES    WAVE   SWELL
                          AIR SEA DIR/SP/G            HT/PER HT/PER
                          (F)     (DEG/KT/KT) (MB)    (FT/S) (FT/S)
28.5N   80.2W              81 83   70/ 19/ 25 1019.6F  10/13   7/13
28.9N   78.5W              80 81   70/ 21/ 27 1020.4S  12/15  10/15
TRIDENT PIER               83 83   50/ 14/ 21 1021.0
28.4N   80.5W                 82                N/A     5/ 7   2/14
27.5N   80.2W                 82                N/A     9/13   5/13

$$
FLZ050-056-061-142-242-148-248-149-249-151-251-155-255-
160-260-202200-
WEST CENTRAL FLORIDA
  
CITY           SKY/WX    TMP DP  RH WIND       PRES   REMARKS
CRYSTAL RIVER  CLOUDY    82  68  61 E9        30.10S                  
INVERNESS      FAIR      84  70  61 E13G18    30.11F                  
BROOKSVILLE    FAIR      85  64  49 E22G30    30.09S                  
CLEARWATER AIR PTSUNNY   84  68  58 NE17G25   30.05S                  
ST PETE CLEARW CLOUDY    86  69  56 E15       30.05S                  
TAMPA INTL     CLOUDY    85  68  56 NE10G21   30.07R                  
TAMPA EXEC     CLOUDY    84  72  65 E15G23    30.07S                  
PLANT CITY     CLOUDY    84  72  65 NE12G18   30.09S                  
MACDILL AFB    CLOUDY    86  66  51 E14       30.05S                  
PETER O KNIGHT CLOUDY    84  70  61 E17G23    30.06S                  
ST PETERSBURG  CLOUDY    85  69  58 E21       30.04S                  
SARASOTA       CLOUDY    81  69  67 E18       30.04R                  
VENICE         PTSUNNY   84  70  61 NE24G33   30.04S                  

STATION/POSITION SKY/WX   TEMP    WIND        PRES    WAVE   SWELL
                          AIR SEA DIR/SP/G            HT/PER HT/PER
                          (F)     (DEG/KT/KT) (MB)    (FT/S) (FT/S)
27.3N   84.2W                 85                N/A     6/ 6
CLEARWATER BEACH           84 86   70/ 15/ 20 1018.0
MIDDLE TAMPA BAY           83     100/ 17/ 22 1017.8
VENICE                     81 85   80/ 15/ 22 1017.2S

$$
FLZ066-069-070-075>078-162-262-165-265-202200-
SOUTHWEST FLORIDA AND KEYS
  
CITY           SKY/WX    TMP DP  RH WIND       PRES   REMARKS
PUNTA GORDA    PTSUNNY   82  69  64 E21G30    30.05S                  
FT MYERS       CLOUDY    83  70  64 NE17      30.01R                  
SOUTHWEST INTL PTSUNNY   82  73  74 NE17G25   30.01R                  
NAPLES         FAIR      89  72  56 E18       29.97S HX  96           
MARCO ISLAND   PTSUNNY   83  74  74 SE9       30.00R                  
IMMOKALEE      PTSUNNY   79  73  83 E12       29.99S                  
MARATHON       FAIR      87  73  62 E21G28    29.94S                  
KEY WEST NAS   FAIR      89  74  60 E21G28    29.93F HX  98           
KEY WEST INTL  FAIR      88  74  63 E14G26    29.93F HX  96           

STATION/POSITION SKY/WX   TEMP    WIND        PRES    WAVE   SWELL
                          AIR SEA DIR/SP/G            HT/PER HT/PER
                          (F)     (DEG/KT/KT) (MB)    (FT/S) (FT/S)
NAPLES                     86 85   60/ 11/ 17 1015.1
26.0N   85.6W              84 86   70/ 16/ 23 1015.6F   9/ 8
DRY TORTUGAS               85      80/ 21/ 23 1014.0F
SAND KEY                   85      80/ 20/ 25 1011.9
SOMBRERO KEY               84      70/ 22/ 28 1013.6
LONG KEY                   84                 1012.7F

$$
FLZ067-068-071>074-168-172>174-202200-
SOUTHEAST FLORIDA 
  
CITY           SKY/WX    TMP DP  RH WIND       PRES   REMARKS
W PALM BEACH   FAIR      84  67  56 E24G32    30.04S                  
BOCA RATON     MOSUNNY   86  70  58 NE23G36   30.02S                  
FT LAUDER-EXEC PTSUNNY   83  70  64 NE20G30   30.00S                  
FT LAUDERDALE  PTSUNNY   84  71  65 NE20G30   30.00R                  
POMPANO BEACH  PTSUNNY   85  69  58 NE22G32   30.01S                  
PEMBROKE PINES PTSUNNY   87  69  54 E23G33    30.01S                  
OPA LOCKA      PTSUNNY   86  71  60 E21G31    30.00S                  
MIAMI          PTSUNNY   83  70  64 E17G30    29.99S                  
WEST KENDALL   RAIN      84  74  71 E20G31    29.98R                  
HOMESTEAD      PTSUNNY   84  75  74 NE17G29   29.96F                  

STATION/POSITION SKY/WX   TEMP    WIND        PRES    WAVE   SWELL
                          AIR SEA DIR/SP/G            HT/PER HT/PER
                          (F)     (DEG/KT/KT) (MB)    (FT/S) (FT/S)
PORT EVERGLADES            83      50/ 22/ 26 1016.0R
VIRGINIA KEY               82 85   60/ 21/ 25 1015.0
LAKE WORTH                 81 82   60/ 25/ 28 1018.1
FOWEY ROCKS                79 84   60/ 22/ 24 1015.4R
SETTLEMENT POINT           81      70/ 23/ 26